Weather History for Split Airport, Croatia

Change the Weather History Date:

Thursday, June 5, 2014

  Actual Average Record
Temperature  
Mean Temperature 70 °F -  
Max Temperature 82 °F - - ()
Min Temperature 59 °F - - ()
Cooling Degree Days 6    
Growing Degree Days 20 (Base 50)    
Moisture  
Dew Point 50 °F    
Average Humidity 48    
Maximum Humidity 68    
Minimum Humidity 23    
Precipitation  
Precipitation 0.00 in - - ()
Sea Level Pressure  
Sea Level Pressure 29.96 in    
Wind  
Wind Speed 4 mph ()    
Max Wind Speed 17 mph    
Max Gust Speed -    
Visibility 19.0 miles    
Events      
T = Trace of Precipitation, MM = Missing Value Source: Averaged Metar Reports

Daily Weather History Graph

Daily Weather History Graph

Search for Another Location

Airport:

Trip Planner

Search our weather history database for the weather conditions in past years. The results will help you decide how hot, cold, wet, or windy it might be!

Date:

Astronomy

Jun. 05, 2014 Rise Set
Actual Time 5:14 AM CEST 8:31 PM CEST
Civil Twilight 4:39 AM CEST 9:07 PM CEST
Nautical Twilight 3:54 AM CEST 9:53 PM CEST
Astronomical Twilight 2:58 AM CEST 10:49 PM CEST
Moon 12:23 PM CEST (6/5) 12:42 AM CEST (6/5)
Length of Visible Light 16h 27m
Length of Day
15h 17m
Waxing Crescent, 46% of the Moon is Illuminated
Jun 5
Waxing Crescent
Jun 5
First Quarter
Jun 13
Full
Jun 19
Last Quarter
Jun 27
New

Hourly Weather History & Observations

Time (CEST) Temp. Dew Point Humidity Pressure Visibility Wind Dir Wind Speed Gust Speed Precip Events Conditions
12:00 AM 64.4 °F 44.6 °F 49% 29.89 in - Variable 1.2 mph - N/A   Clear
12:30 AM 62.6 °F 46.4 °F 55% 29.89 in - Variable 2.3 mph - N/A   Clear
1:00 AM 60.8 °F 46.4 °F 59% 29.89 in - Variable 3.5 mph - N/A   Clear
1:30 AM 60.8 °F 46.4 °F 59% 29.89 in - WNW 8.1 mph - N/A   Clear
2:00 AM 64 °F 46 °F 42% 29.90 in 19 mi Calm Calm - -  
2:00 AM 64.4 °F 46.4 °F 52% 29.89 in - Calm Calm - N/A   Clear
2:30 AM 62.6 °F 46.4 °F 55% 29.89 in - Variable 1.2 mph - N/A   Clear
3:00 AM 62.6 °F 46.4 °F 55% 29.89 in - Variable 2.3 mph - N/A   Clear
3:30 AM 62.6 °F 46.4 °F 55% 29.92 in - Variable 2.3 mph - N/A   Clear
4:00 AM 60.8 °F 46.4 °F 59% 29.89 in - NW 5.8 mph - N/A   Clear
4:30 AM 62.6 °F 46.4 °F 55% 29.89 in - West 4.6 mph - N/A   Clear
5:00 AM 63 °F 46 °F 43% 29.91 in 19 mi NNE 2.2 mph - -   Partly Cloudy
5:00 AM 62.6 °F 46.4 °F 55% 29.92 in - Variable 2.3 mph - N/A   Clear
5:30 AM 60.8 °F 48.2 °F 63% 29.92 in - Calm Calm - N/A   Clear
6:00 AM 60.8 °F 48.2 °F 63% 29.92 in - Calm Calm - N/A   Clear
6:30 AM 62.6 °F 50.0 °F 63% 29.92 in - Calm Calm - N/A   Clear
7:00 AM 64.4 °F 51.8 °F 64% 29.95 in - Calm Calm - N/A   Clear
7:30 AM 66.2 °F 55.4 °F 68% 29.95 in - Calm Calm - N/A   Clear
8:00 AM 66 °F 55 °F 60% 29.96 in 31 mi Calm Calm - -   Partly Cloudy
8:00 AM 66.2 °F 55.4 °F 68% 29.95 in - Calm Calm - N/A   Clear
8:30 AM 68.0 °F 57.2 °F 68% 29.95 in - Variable 2.3 mph - N/A   Clear
9:00 AM 69.8 °F 55.4 °F 60% 29.95 in - Variable 1.2 mph - N/A   Clear
9:30 AM 71.6 °F 53.6 °F 53% 29.95 in - SW 5.8 mph - N/A   Clear
10:00 AM 71.6 °F 53.6 °F 53% 29.95 in - WSW 5.8 mph - N/A   Clear
10:30 AM 71.6 °F 55.4 °F 57% 29.98 in - WSW 8.1 mph - N/A   Clear
11:00 AM 73 °F 50 °F 34% 29.98 in 31 mi SW 8.9 mph - -   Scattered Clouds
11:00 AM 73.4 °F 50.0 °F 44% 29.98 in - SW 8.1 mph - N/A   Clear
11:30 AM 75.2 °F 55.4 °F 50% 29.98 in - SW 10.4 mph - N/A   Clear
12:00 PM 75.2 °F 51.8 °F 44% 29.98 in - Variable 4.6 mph - N/A   Clear
12:30 PM 78.8 °F 50.0 °F 36% 29.98 in - WSW 13.8 mph - N/A   Clear
1:00 PM 78.8 °F 50.0 °F 36% 29.98 in - WNW 8.1 mph - N/A   Clear
1:30 PM 80.6 °F 50.0 °F 34% 29.98 in - Variable 5.8 mph - N/A   Clear
2:00 PM 80 °F 49 °F 23% 29.97 in 31 mi WNW 11.2 mph - -   Scattered Clouds
2:00 PM 80.6 °F 50.0 °F 34% 29.98 in - WNW 10.4 mph - N/A   Clear
2:30 PM 82.4 °F 48.2 °F 30% 29.98 in - West 12.7 mph - N/A   Clear
3:00 PM 82.4 °F 46.4 °F 28% 29.98 in - West 13.8 mph - N/A   Clear
3:30 PM 82.4 °F 46.4 °F 28% 29.98 in - West 17.3 mph - N/A   Clear
4:00 PM 82.4 °F 44.6 °F 26% 29.95 in - WSW 12.7 mph - N/A   Clear
5:00 PM 80 °F 48 °F 23% 29.97 in 31 mi West 13.4 mph - -   Clear
5:00 PM 80.6 °F 48.2 °F 32% 29.95 in - West 13.8 mph - N/A   Clear
5:30 PM 78.8 °F 46.4 °F 32% 29.98 in - West 13.8 mph - N/A   Clear
6:00 PM 77.0 °F 46.4 °F 34% 29.98 in - WNW 8.1 mph - N/A   Clear
6:30 PM 77.0 °F 48.2 °F 36% 29.98 in - WNW 8.1 mph - N/A   Clear
7:00 PM 77.0 °F 48.2 °F 36% 29.98 in - West 6.9 mph - N/A   Clear
7:30 PM 77.0 °F 48.2 °F 36% 29.98 in - SW 4.6 mph - N/A   Clear
8:00 PM 75 °F 52 °F 34% 29.99 in 19 mi Calm Calm - -   Clear
8:00 PM 75.2 °F 51.8 °F 44% 29.98 in - Variable 1.2 mph - N/A   Clear
8:30 PM 73.4 °F 53.6 °F 50% 29.98 in - Variable 1.2 mph - N/A   Clear
9:00 PM 71.6 °F 55.4 °F 57% 30.01 in - SW 4.6 mph - N/A   Clear
9:30 PM 71.6 °F 55.4 °F 57% 30.01 in - WNW 4.6 mph - N/A   Clear
10:00 PM 69.8 °F 55.4 °F 60% 30.01 in - Variable 1.2 mph - N/A   Clear
10:30 PM 68.0 °F 55.4 °F 64% 30.01 in - West 5.8 mph - N/A   Clear
11:00 PM 67 °F 55 °F 57% 30.02 in 19 mi WNW 8.9 mph - -   Clear
11:00 PM 68.0 °F 55.4 °F 64% 30.01 in - WNW 8.1 mph - N/A   Clear
11:30 PM 68.0 °F 55.4 °F 64% 30.01 in - WNW 12.7 mph - N/A   Clear